Tracking 25949 objects as of 8-Aug-2022
HD Live streaming from Space Station
objects crossing your sky now

COSMOS 1275 DEB

Track COSMOS 1275 DEB now!
10-day predictions


NORAD ID: 12648
Int'l Code: 1981-053C
Perigee: 958.8 km
Apogee: 979.4 km
Inclination: 83.0 °
Period: 104.3 minutes
Semi major axis: 7340 km
RCS: 0.408 m2 (medium)
Launch date: June 4, 1981
Source: Commonwealth of Independent States (former USSR) (CIS)
Launch site: PLESETSK MISSILE AND SPACE COMPLEX (PKMTR)

Note: This is SATELLITE DEBRIS
aabbcc
Your satellite tracking list
Your tracking list is empty




NASA's NSSDC Master Catalog

Two Line Element Set (TLE):
1 12648U 81053C   22220.37711808  .00000202  00000-0  17824-3 0  9990
2 12648  82.9717 177.5104 0014003 177.7579 296.0694 13.80541551 63203
Source of the keplerian elements: AFSPC